N24S KOQU-KBOS

Flight info

Callsign N24S
Flight time 0h 36m
Altitude 5000
Route PVD
Aircraft DA40/L-SDGRY/S

Departure

Time 2026-04-12 02:30
Airport Quonset State Airport (KOQU)

Arrival

Time 2026-04-12 03:06
Airport Boston Logan International Airport (KBOS)
Time Latitude Longitude Altitude Speed Heading
2026-04-12 02:14 41.59922 -71.41637 10 ft 0 kts 233°
2026-04-12 02:25 41.59920 -71.41639 10 ft 4 kts 213°
2026-04-12 02:26 41.59909 -71.41581 9 ft 17 kts 82°
2026-04-12 02:26 41.59862 -71.41461 9 ft 20 kts 196°
2026-04-12 02:26 41.59745 -71.41380 10 ft 26 kts 145°
2026-04-12 02:26 41.59585 -71.41225 13 ft 25 kts 145°
2026-04-12 02:27 41.59461 -71.41108 16 ft 19 kts 144°
2026-04-12 02:27 41.59357 -71.41014 14 ft 18 kts 140°
2026-04-12 02:27 41.59272 -71.40932 14 ft 14 kts 142°
2026-04-12 02:27 41.59192 -71.40861 13 ft 15 kts 145°
2026-04-12 02:28 41.59101 -71.40776 11 ft 15 kts 146°
2026-04-12 02:28 41.59011 -71.40693 13 ft 15 kts 146°
2026-04-12 02:28 41.58954 -71.40629 13 ft 4 kts 127°
2026-04-12 02:28 41.58949 -71.40616 13 ft 4 kts 108°
2026-04-12 02:29 41.58971 -71.40545 13 ft 15 kts 49°
2026-04-12 02:29 41.59095 -71.40604 12 ft 36 kts 327°
2026-04-12 02:29 41.59429 -71.40884 74 ft 67 kts 322°
2026-04-12 02:29 41.59835 -71.41241 266 ft 74 kts 324°
2026-04-12 02:30 41.60403 -71.41351 408 ft 93 kts
2026-04-12 02:30 41.60951 -71.40832 598 ft 102 kts 43°
2026-04-12 02:30 41.61312 -71.40460 714 ft 98 kts 21°
2026-04-12 02:30 41.61911 -71.40074 918 ft 93 kts 19°
2026-04-12 02:31 41.62489 -71.39729 1140 ft 89 kts 18°
2026-04-12 02:31 41.63046 -71.39410 1352 ft 86 kts 17°
2026-04-12 02:31 41.63587 -71.39106 1543 ft 83 kts 16°
2026-04-12 02:31 41.64098 -71.38821 1723 ft 80 kts 16°
2026-04-12 02:32 41.64614 -71.38537 1896 ft 79 kts 16°
2026-04-12 02:32 41.65118 -71.38259 2058 ft 78 kts 15°
2026-04-12 02:32 41.65622 -71.37982 2219 ft 78 kts 15°
2026-04-12 02:32 41.66126 -71.37705 2378 ft 78 kts 15°
2026-04-12 02:33 41.66630 -71.37428 2553 ft 79 kts 15°
2026-04-12 02:33 41.67137 -71.37148 2716 ft 79 kts 15°
2026-04-12 02:33 41.67649 -71.36867 2874 ft 80 kts 15°
2026-04-12 02:33 41.68162 -71.36584 3039 ft 80 kts 14°
2026-04-12 02:34 41.68681 -71.36299 3201 ft 81 kts 15°
2026-04-12 02:34 41.69198 -71.36013 3365 ft 81 kts 13°
2026-04-12 02:34 41.69719 -71.35726 3514 ft 81 kts 14°
2026-04-12 02:34 41.70244 -71.35437 3674 ft 82 kts 13°
2026-04-12 02:35 41.70774 -71.35145 3832 ft 83 kts 14°
2026-04-12 02:35 41.71310 -71.34850 3989 ft 83 kts 13°
2026-04-12 02:35 41.71849 -71.34553 4141 ft 84 kts 14°
2026-04-12 02:35 41.72400 -71.34250 4301 ft 87 kts 14°
2026-04-12 02:36 41.72970 -71.33935 4479 ft 89 kts 14°
2026-04-12 02:36 41.73548 -71.33616 4665 ft 90 kts 14°
2026-04-12 02:36 41.74130 -71.33294 4844 ft 91 kts 13°
2026-04-12 02:36 41.74711 -71.32974 5001 ft 94 kts 13°
2026-04-12 02:37 41.75372 -71.32611 5000 ft 108 kts 15°
2026-04-12 02:37 41.76079 -71.32216 5014 ft 115 kts 16°
2026-04-12 02:37 41.76830 -71.31797 5013 ft 118 kts 16°
2026-04-12 02:37 41.77597 -71.31370 4997 ft 120 kts 16°
2026-04-12 02:38 41.78369 -71.30942 4997 ft 121 kts 16°
2026-04-12 02:38 41.79157 -71.30506 4996 ft 121 kts 17°
2026-04-12 02:38 41.79928 -71.30079 4995 ft 121 kts 16°
2026-04-12 02:38 41.80714 -71.29645 5001 ft 122 kts 16°
2026-04-12 02:39 41.81501 -71.29209 4994 ft 122 kts 16°
2026-04-12 02:39 41.82288 -71.28774 5005 ft 123 kts 16°
2026-04-12 02:39 41.83076 -71.28337 4997 ft 122 kts 16°
2026-04-12 02:39 41.83863 -71.27902 4991 ft 122 kts 16°
2026-04-12 02:40 41.84650 -71.27466 4987 ft 122 kts 16°
2026-04-12 02:40 41.85437 -71.27030 4998 ft 122 kts 16°
2026-04-12 02:40 41.86211 -71.26601 4992 ft 122 kts 16°
2026-04-12 02:40 41.86993 -71.26168 4992 ft 122 kts 16°
2026-04-12 02:41 41.87777 -71.25734 5004 ft 122 kts 15°
2026-04-12 02:41 41.88563 -71.25298 5008 ft 122 kts 15°
2026-04-12 02:41 41.89350 -71.24862 4992 ft 122 kts 15°
2026-04-12 02:41 41.90137 -71.24425 4991 ft 122 kts 15°
2026-04-12 02:42 41.90922 -71.23989 4991 ft 122 kts 15°
2026-04-12 02:42 41.91709 -71.23553 4993 ft 123 kts 15°
2026-04-12 02:42 41.92498 -71.23115 4993 ft 123 kts 15°
2026-04-12 02:43 41.94076 -71.22239 4993 ft 123 kts 15°
2026-04-12 02:43 41.94866 -71.21800 4993 ft 123 kts 15°
2026-04-12 02:43 41.95659 -71.21359 4992 ft 123 kts 15°
2026-04-12 02:43 41.96448 -71.20920 4992 ft 123 kts 15°
2026-04-12 02:44 41.97235 -71.20483 4993 ft 122 kts 15°
2026-04-12 02:44 41.98023 -71.20045 4997 ft 123 kts 15°
2026-04-12 02:44 41.98812 -71.19606 4991 ft 123 kts 15°
2026-04-12 02:44 41.99599 -71.19168 4992 ft 122 kts 15°
2026-04-12 02:45 42.00386 -71.18730 4992 ft 122 kts 15°
2026-04-12 02:45 42.01173 -71.18292 4991 ft 122 kts 15°
2026-04-12 02:45 42.01951 -71.17858 4998 ft 123 kts 15°
2026-04-12 02:45 42.02744 -71.17417 4992 ft 123 kts 15°
2026-04-12 02:46 42.03534 -71.16977 4992 ft 123 kts 15°
2026-04-12 02:46 42.04322 -71.16537 4991 ft 123 kts 15°
2026-04-12 02:46 42.05111 -71.16078 4981 ft 126 kts 23°
2026-04-12 02:46 42.05731 -71.15197 4989 ft 132 kts 45°
2026-04-12 02:47 42.06291 -71.14185 4900 ft 138 kts 46°
2026-04-12 02:47 42.06863 -71.13147 4862 ft 137 kts 45°
2026-04-12 02:47 42.07427 -71.12112 4814 ft 137 kts 46°
2026-04-12 02:47 42.07991 -71.11078 4720 ft 139 kts 46°
2026-04-12 02:48 42.08565 -71.10027 4407 ft 141 kts 46°
2026-04-12 02:48 42.09116 -71.09000 4284 ft 132 kts 46°
2026-04-12 02:48 42.09657 -71.07987 4065 ft 133 kts 46°
2026-04-12 02:48 42.10185 -71.06994 3986 ft 125 kts 46°
2026-04-12 02:49 42.10660 -71.06070 3989 ft 116 kts 46°
2026-04-12 02:49 42.11108 -71.05185 3986 ft 112 kts 46°
2026-04-12 02:49 42.11540 -71.04317 3986 ft 111 kts 45°
2026-04-12 02:49 42.11960 -71.03462 3987 ft 109 kts 45°
2026-04-12 02:50 42.12410 -71.02568 3984 ft 120 kts 46°
2026-04-12 02:50 42.12903 -71.01619 3982 ft 127 kts 45°
2026-04-12 02:50 42.13407 -71.00661 3982 ft 130 kts 45°
2026-04-12 02:50 42.13944 -70.99644 3985 ft 130 kts 46°
2026-04-12 02:51 42.14463 -70.98657 3988 ft 131 kts 46°
2026-04-12 02:51 42.14991 -70.97652 3988 ft 131 kts 45°
2026-04-12 02:51 42.15520 -70.96651 3985 ft 131 kts 45°
2026-04-12 02:51 42.16049 -70.95652 3991 ft 131 kts 46°
2026-04-12 02:52 42.16581 -70.94654 3990 ft 131 kts 46°
2026-04-12 02:52 42.17113 -70.93658 3992 ft 131 kts 45°
2026-04-12 02:52 42.17645 -70.92658 3989 ft 131 kts 45°
2026-04-12 02:52 42.18177 -70.91656 3993 ft 131 kts 45°
2026-04-12 02:53 42.18709 -70.90658 3993 ft 131 kts 46°
2026-04-12 02:53 42.19237 -70.89668 3992 ft 132 kts 46°
2026-04-12 02:53 42.20317 -70.87655 3997 ft 132 kts 45°
2026-04-12 02:54 42.20844 -70.86631 4001 ft 133 kts 45°
2026-04-12 02:54 42.21368 -70.85600 3993 ft 132 kts 45°
2026-04-12 02:54 42.21880 -70.84572 3997 ft 131 kts 45°
2026-04-12 02:54 42.22389 -70.83551 3999 ft 131 kts 45°
2026-04-12 02:55 42.22902 -70.82526 3997 ft 132 kts 45°
2026-04-12 02:55 42.23419 -70.81495 3996 ft 133 kts 45°
2026-04-12 02:55 42.23931 -70.80471 3993 ft 133 kts 45°
2026-04-12 02:55 42.24448 -70.79433 3993 ft 133 kts 45°
2026-04-12 02:56 42.24962 -70.78392 3990 ft 133 kts 45°
2026-04-12 02:56 42.25474 -70.77358 3993 ft 133 kts 45°
2026-04-12 02:56 42.25992 -70.76321 3988 ft 133 kts 45°
2026-04-12 02:56 42.26519 -70.75299 3989 ft 130 kts 38°
2026-04-12 02:57 42.27254 -70.74821 3982 ft 113 kts 354°
2026-04-12 02:57 42.28020 -70.74919 3982 ft 110 kts 346°
2026-04-12 02:57 42.28781 -70.75066 3988 ft 110 kts 346°
2026-04-12 02:57 42.29543 -70.75224 3988 ft 111 kts 346°
2026-04-12 02:58 42.30300 -70.75387 3987 ft 110 kts 345°
2026-04-12 02:58 42.31045 -70.75542 3987 ft 109 kts 346°
2026-04-12 02:58 42.31795 -70.75697 3983 ft 109 kts 345°
2026-04-12 02:58 42.32552 -70.75848 3987 ft 109 kts 346°
2026-04-12 02:59 42.33304 -70.76003 3989 ft 110 kts 346°
2026-04-12 02:59 42.34055 -70.76171 3987 ft 109 kts 342°
2026-04-12 02:59 42.34619 -70.76776 3958 ft 98 kts 309°
2026-04-12 02:59 42.34999 -70.77580 3381 ft 107 kts 307°
2026-04-12 03:00 42.35373 -70.78440 2875 ft 105 kts 306°
2026-04-12 03:00 42.35723 -70.79311 2375 ft 105 kts 306°
2026-04-12 03:00 42.36053 -70.80189 1991 ft 99 kts 306°
2026-04-12 03:00 42.36297 -70.80924 1991 ft 75 kts 306°
2026-04-12 03:01 42.36340 -70.81608 1980 ft 76 kts 272°
2026-04-12 03:01 42.36155 -70.82225 1983 ft 67 kts 269°
2026-04-12 03:01 42.35955 -70.82902 2008 ft 92 kts 268°
2026-04-12 03:01 42.35757 -70.83733 2097 ft 104 kts 268°
2026-04-12 03:02 42.35561 -70.84716 2064 ft 100 kts 269°
2026-04-12 03:02 42.35369 -70.85686 2026 ft 111 kts 270°
2026-04-12 03:02 42.35244 -70.86738 2026 ft 116 kts 274°
2026-04-12 03:02 42.35142 -70.87832 2026 ft 118 kts 277°
2026-04-12 03:03 42.35129 -70.88936 2022 ft 118 kts 281°
2026-04-12 03:03 42.35154 -70.90044 2021 ft 119 kts 283°
2026-04-12 03:03 42.35202 -70.91170 2024 ft 120 kts 283°
2026-04-12 03:03 42.35294 -70.92248 1932 ft 103 kts 290°
2026-04-12 03:04 42.35439 -70.93143 1565 ft 95 kts 296°
2026-04-12 03:04 42.35683 -70.94117 1134 ft 127 kts 298°
2026-04-12 03:04 42.35880 -70.95258 873 ft 112 kts 287°
2026-04-12 03:04 42.36109 -70.96123 594 ft 90 kts 301°
2026-04-12 03:05 42.36242 -70.96953 367 ft 81 kts 289°
2026-04-12 03:05 42.36210 -70.97632 187 ft 67 kts 269°
2026-04-12 03:05 42.36107 -70.98282 110 ft 74 kts 264°
2026-04-12 03:05 42.35993 -70.98960 44 ft 75 kts 262°
2026-04-12 03:06 42.35884 -70.99601 26 ft 62 kts 268°
2026-04-12 03:06 42.35806 -71.00123 29 ft 54 kts 268°
2026-04-12 03:06 42.35740 -71.00588 20 ft 48 kts 265°